Terminal Aerodrome Forecast
Issued by NWS Charleston, WV

Current Version | Previous Version | Graphics & Text | Print | Product List | Glossary On
Versions: 1 2 3 4 5 6 7 8 9 10 11 12 13 14 15 16 17 18 19 20 21 22 23
000
FTUS41 KRLX 210900 AAA
TAFEKN
TAF AMD
KEKN 210958Z 2110/2206 00000KT P6SM BKN018
     FM211700 14003KT P6SM BKN025
     FM212000 15004KT P6SM SCT250
     FM212300 00000KT P6SM SCT250=

USA.gov is the U.S. government's official web portal to all federal, state and local government web resources and services.